Location: Baix
(44.7118°N, 4.7648°E)
Time: 23:27:39
(UTC+00:00)

N. Korean satellite - Visible Passes

Search period start: 19 October 2020 00:00
Search period end: 29 October 2020 00:00
Orbit: 453 x 504 km, 97.2° (Epoch: 18 October)

Date Brightness Start Highest point End Pass type
(mag) Time Alt. Az. Time Alt. Az. Time Alt. Az.
19 Oct 9.9 04:16:46 10° ENE 04:18:36 14° E 04:20:24 10° ESE visible
20 Oct 6.4 05:22:38 10° N 05:26:05 81° WNW 05:29:29 10° SSW visible
20 Oct 10.3 17:34:36 10° WSW 17:36:13 12° W 17:37:48 10° WNW visible
21 Oct 7.8 04:56:39 10° NNE 04:59:57 43° E 05:03:13 10° S visible
22 Oct 9.3 04:31:05 10° NE 04:33:43 20° E 04:36:21 10° SE visible
24 Oct 6.7 05:11:33 10° NNE 05:14:59 71° ESE 05:18:23 10° S visible
24 Oct 9.9 17:22:43 10° SW 17:25:03 16° W 17:27:22 10° NW visible
25 Oct 8.5 04:45:43 10° NNE 04:48:49 31° E 04:51:53 10° SSE visible
26 Oct 9.8 04:20:26 10° NE 04:22:32 15° E 04:24:37 10° SE visible
27 Oct 6.3 05:26:33 10° N 05:29:58 71° WNW 05:33:21 10° SSW visible
27 Oct 10.5 17:39:19 10° WSW 17:40:10 11° W 17:41:02 10° WNW visible
28 Oct 7.5 05:00:30 10° NNE 05:03:50 49° E 05:07:09 10° S visible
28 Oct 9.6 17:11:04 10° SW 17:13:51 21° W 17:16:38 10° NW visible
